Theta_e
288 288 288 288 288 288 288 288 288 288 288 288 288 288 288 288 288 288 288 287 287 286 286 286 285 285 284 284 285 285 285 286 286 286 286 285 283 282 281 280 280 280
288 288 288 288 288 288 288 288 288 288 288 288 288 288 288 288 288 288 287 287 286 286 285 285 284 284 284 284 284 284 285 285 285 285 284 282 282 281 280 280 279 279
288 288 288 288 288 288 288 288 288 288 288 288 288 288 288 288 288 287 287 286 286 285 284 284 283 283 283 283 283 284 284 285 285 284 282 281 280 279 280 279 279 279
288 288 288 288 288 288 288 288 288 288 288 288 288 288 288 288 288 287 286 285 285 284 284 283 283 283 283 283 283 284 284 284 284 283 280 279 279 278 279 279 278 278
288 288 288 288 288 288 288 288 288 288 288 288 288 288 288 287 287 286 285 284 284 283 283 283 283 283 283 283 283 283 283 282 282 280 279 278 278 276 277 278 278 277
288 288 288 288 288 288 288 288 288 288 288 288 288 287 287 286 286 285 285 284 283 283 283 283 283 283 283 284 284 283 281 280 279 278 277 277 277 276 275 276 277 277
288 288 288 288 288 288 288 288 288 288 288 288 287 287 286 286 285 284 284 283 283 283 283 283 284 284 284 284 284 283 280 278 277 276 276 276 276 276 275 274 275 276
287 287 287 287 287 288 288 288 288 288 287 287 287 286 285 285 284 284 283 283 283 283 284 284 284 284 284 284 284 283 281 278 275 275 275 275 274 274 275 274 274 275
287 287 287 287 287 288 288 288 288 287 287 286 286 285 285 284 284 283 283 283 284 284 284 284 284 284 284 284 283 282 280 278 275 274 274 274 273 273 273 273 274 274
287 287 287 287 287 287 288 287 287 287 286 286 285 285 284 283 283 283 283 284 284 284 284 284 284 284 284 283 282 281 279 278 276 273 272 272 272 272 272 272 273 273
287 287 287 287 287 287 287 287 287 286 285 285 284 284 283 283 283 283 283 284 284 284 284 284 284 284 284 283 282 280 278 277 275 273 271 270 271 271 271 271 272 273
287 287 287 287 287 287 287 287 286 285 285 284 283 283 283 283 283 283 283 284 284 283 283 283 284 283 283 282 281 279 278 276 273 271 269 269 270 270 270 271 271 272
287 287 287 287 287 287 287 286 285 285 284 283 283 282 282 283 283 283 283 283 283 283 283 283 284 283 283 281 280 279 276 273 270 269 268 269 269 270 270 271 271 272
287 287 287 287 287 287 286 285 285 284 283 283 282 282 282 283 283 283 283 283 283 283 283 283 283 283 282 280 278 276 272 269 268 268 269 269 270 270 271 272 272 273
287 287 287 287 287 286 285 285 284 283 283 282 282 282 282 283 283 283 283 283 283 283 283 283 282 281 279 276 273 271 269 268 269 269 270 270 271 271 272 273 273 273
287 287 287 287 286 286 285 284 284 283 282 282 282 282 282 283 283 283 283 283 283 283 282 282 281 279 276 272 270 269 269 270 270 270 271 271 272 272 273 273 273 274
287 287 287 286 286 285 285 284 283 282 282 281 281 282 282 283 283 283 283 283 282 282 281 280 278 277 274 271 268 268 270 270 270 271 272 272 273 273 273 274 274 274
287 287 286 286 285 285 284 283 282 281 281 281 281 282 282 282 283 283 282 282 281 280 279 278 277 275 272 269 268 268 269 270 271 271 272 272 273 274 274 274 274 275
287 287 286 285 285 284 283 282 282 281 281 281 282 282 282 282 282 282 282 281 280 279 278 277 276 274 271 268 268 269 270 270 271 271 272 273 273 274 275 275 275 275
287 286 286 285 284 284 283 282 281 281 280 281 282 282 282 282 282 281 281 280 279 278 277 277 275 273 270 268 268 269 270 271 272 272 272 273 274 274 275 275 276 276
286 285 285 285 284 283 282 281 281 280 280 281 281 282 281 281 281 281 280 279 278 277 277 276 274 272 270 268 269 270 271 271 272 272 272 273 274 274 275 276 276 277
286 285 285 284 283 282 281 281 280 280 280 281 281 281 281 280 280 280 279 278 277 276 275 275 274 272 270 269 269 270 271 271 272 272 273 273 274 274 275 275 276 277
285 285 284 283 283 282 281 280 280 280 280 281 281 281 280 280 279 279 278 277 276 275 274 274 274 272 270 270 269 270 271 271 272 272 272 273 273 273 274 275 276 276
284 284 284 283 282 281 280 280 280 280 280 280 280 280 279 279 279 278 277 276 275 274 273 272 272 271 270 270 269 270 271 271 271 272 272 272 272 273 274 274 275 275
284 283 283 282 281 280 279 279 279 279 280 279 279 279 278 278 278 278 277 276 275 274 272 271 270 269 269 269 269 270 271 271 271 271 272 272 272 273 273 274 274 275
283 283 282 281 280 279 279 279 279 279 279 279 278 278 277 277 277 277 277 275 274 273 272 270 269 269 269 269 269 270 271 271 271 271 271 272 272 273 273 274 274 275
Wind_Speed
15 16 17 18 19 21 23 24 26 28 29 30 33 34 36 38 39 41 42 43 43 43 43 43 43 43 42 42 43 44 45 46 47 48 47 46 46 44 44 45 42 40
15 15 16 17 19 20 23 25 26 29 30 32 34 36 38 41 42 43 45 45 45 44 44 44 44 43 43 43 43 44 46 47 47 48 47 47 46 45 45 45 42 41
14 15 16 17 19 21 23 25 27 29 32 33 35 38 41 43 45 46 46 46 46 45 44 44 44 43 43 43 43 45 46 46 48 47 47 47 45 45 46 44 43 45
13 14 16 17 20 22 24 26 28 30 33 35 37 40 43 45 47 48 47 46 45 45 44 43 43 42 43 43 44 46 47 47 47 46 46 47 46 45 46 44 44 46
13 14 16 18 21 23 26 28 30 32 35 37 39 42 45 47 48 47 47 45 44 43 43 42 42 42 42 43 44 45 46 46 46 46 46 48 47 45 47 48 43 41
13 15 17 19 22 24 27 29 32 34 37 39 42 44 46 47 47 46 45 44 42 41 41 41 41 41 42 43 44 46 46 46 46 46 46 49 49 44 45 48 44 40
14 16 18 21 23 26 29 31 33 36 39 41 44 45 46 46 46 45 43 42 41 40 40 41 41 42 44 45 46 48 48 47 46 45 45 49 52 49 43 41 41 42
15 17 20 22 25 27 30 32 35 38 40 43 45 45 45 45 44 43 41 40 40 41 41 43 44 45 46 47 49 51 50 48 44 43 47 47 47 49 45 37 37 41
16 18 21 23 26 29 31 34 37 39 41 43 45 45 44 43 42 41 40 40 41 42 43 44 46 47 48 49 51 52 50 49 45 43 47 47 42 43 42 38 37 39
17 19 22 25 28 30 33 35 38 40 42 43 43 43 42 40 40 40 40 41 41 43 45 46 47 48 49 50 51 51 50 49 47 45 44 42 40 40 40 39 38 38
18 20 23 26 29 32 34 36 39 40 42 42 41 41 39 39 39 39 40 41 43 45 46 47 48 49 50 51 51 50 49 48 47 45 41 38 39 40 41 40 38 37
18 21 24 27 30 33 35 37 39 40 40 40 39 38 38 38 39 40 41 43 44 45 46 47 48 48 49 50 49 48 47 45 42 40 37 36 37 37 36 35 35 37
19 21 24 28 30 33 35 37 38 39 38 38 37 37 38 38 40 41 41 42 43 44 45 46 47 47 48 47 46 44 42 40 37 35 34 34 34 33 33 33 34 35
19 22 25 28 31 33 35 36 37 37 36 35 36 37 38 38 40 41 41 41 42 43 44 45 46 47 47 45 44 41 38 35 34 33 34 35 37 38 37 37 37 36
20 23 26 28 31 32 34 35 35 35 34 34 35 36 37 38 38 39 39 40 41 42 42 44 45 46 46 44 40 37 35 35 35 36 37 39 41 42 42 41 40 39
20 23 26 29 31 32 33 34 34 33 33 33 34 34 35 35 36 36 37 39 40 41 43 44 45 46 44 39 33 33 34 36 37 37 37 38 39 41 42 42 42 43
20 24 26 28 30 32 32 33 32 32 32 32 33 33 32 33 34 34 36 38 40 41 42 43 43 43 42 37 32 32 33 35 37 36 36 37 37 38 38 39 41 41
21 24 26 28 29 31 31 31 31 31 31 32 31 31 31 31 32 34 35 37 39 40 40 41 42 41 39 35 32 32 33 35 36 36 36 36 37 37 38 39 41 41
22 24 26 27 29 30 30 30 30 30 30 30 30 30 30 31 32 34 35 36 37 38 39 40 41 40 36 33 33 34 33 34 35 36 37 36 36 37 38 39 41 41
23 24 25 27 28 28 29 29 30 30 29 29 29 29 30 31 32 33 34 34 35 37 39 40 39 37 34 32 33 34 33 34 35 35 36 35 34 35 36 38 39 41
23 23 24 26 27 27 28 28 29 28 28 28 28 28 30 31 32 33 33 34 35 36 38 40 38 36 33 30 32 34 33 33 33 33 32 33 33 32 33 35 37 38
22 22 24 25 26 26 27 27 28 27 27 28 28 28 29 30 32 33 33 34 35 36 39 40 39 36 33 31 31 32 32 31 31 32 33 33 33 32 32 33 33 34
21 22 23 24 24 25 26 26 27 27 26 27 28 28 29 30 31 32 32 34 36 37 39 41 41 39 36 33 30 29 30 31 33 34 34 33 33 32 32 33 32 33
20 20 22 23 23 24 26 26 26 25 25 26 27 28 29 30 31 32 32 33 35 37 38 40 42 40 37 36 32 29 32 33 34 35 35 34 34 33 32 33 33 34
18 19 21 21 22 23 25 25 25 24 25 25 26 28 29 29 31 33 34 34 36 37 38 38 40 40 38 35 33 32 34 34 34 35 35 35 35 34 34 35 35 36
16 18 20 20 21 22 23 24 24 24 24 24 25 27 28 29 31 33 35 37 37 38 38 38 39 40 37 33 32 34 35 34 33 34 35 36 36 36 37 37 37 37
Wind_Direction
293 299 303 308 313 318 321 322 322 322 323 322 320 320 320 320 320 319 317 314 312 310 308 306 304 302 301 299 298 296 294 294 294 294 293 291 290 290 289 287 282 278
292 298 304 310 314 319 320 320 321 321 321 320 319 319 319 320 320 319 317 315 312 310 308 306 304 303 301 300 298 296 294 294 294 294 292 289 289 288 287 285 280 276
291 297 305 311 314 317 318 319 320 320 319 318 319 319 319 319 319 319 318 315 313 311 309 307 305 303 301 300 298 296 294 294 294 294 291 288 286 287 288 285 279 278
290 297 305 311 314 316 317 319 320 320 319 318 318 319 319 319 319 319 318 315 313 311 310 307 305 303 301 300 298 296 295 295 294 294 291 287 286 286 288 286 281 281
287 297 305 310 313 315 317 320 321 320 319 319 319 320 321 320 320 319 318 315 314 312 310 308 304 303 302 301 299 297 296 295 294 293 290 287 286 283 284 286 280 275
287 297 304 309 312 316 319 321 322 321 320 320 321 322 322 322 320 319 317 316 315 313 310 308 306 305 305 303 301 299 296 293 292 291 287 283 284 281 279 284 281 271
290 299 305 310 314 318 321 322 322 321 322 322 323 324 323 322 320 319 317 316 315 313 311 310 309 308 308 306 303 300 296 293 291 288 284 281 285 285 277 276 280 275
293 301 307 313 317 320 321 322 322 322 323 324 324 324 323 321 320 319 318 317 316 315 313 312 311 310 309 307 304 302 298 294 290 284 284 283 283 287 282 272 275 276
295 303 310 314 318 321 322 322 323 324 325 326 325 325 324 322 321 320 319 318 317 315 313 312 312 311 309 306 303 301 297 295 291 284 286 286 280 280 280 274 273 274
298 305 311 316 319 322 323 323 324 326 327 327 326 325 324 324 322 320 319 318 316 314 313 313 312 311 309 306 303 300 297 296 294 289 287 285 278 274 276 277 274 270
300 307 313 317 320 322 323 323 325 328 329 329 328 326 325 324 322 320 318 317 316 315 315 314 313 311 308 306 302 300 299 296 295 292 286 281 278 275 276 277 274 270
301 309 314 318 321 322 323 325 328 330 330 329 328 326 324 323 322 320 318 317 317 317 316 314 312 310 307 305 303 302 301 299 297 294 289 286 283 281 279 278 274 271
304 311 315 318 320 321 323 327 330 330 330 329 327 325 325 323 321 320 319 319 318 317 316 314 312 311 308 307 307 306 305 304 301 296 291 290 289 287 286 285 280 276
306 312 315 318 319 321 325 329 331 330 330 328 326 325 325 323 321 321 321 320 319 318 318 317 315 314 313 314 316 314 310 306 302 296 293 293 293 293 293 292 290 287
308 313 316 318 319 323 328 330 330 330 329 328 327 326 325 323 322 323 322 322 321 321 321 321 320 320 320 322 321 314 307 302 297 294 294 294 293 293 294 294 292 292
309 313 315 317 321 326 329 329 329 329 328 327 326 325 324 323 324 324 324 324 325 326 326 326 326 325 325 325 315 303 297 295 292 290 289 290 288 287 289 289 290 292
310 313 315 318 324 328 329 329 329 328 327 326 326 326 324 324 325 325 327 328 329 330 331 330 329 329 328 324 311 299 295 293 292 290 288 286 285 282 281 281 284 287
311 312 316 321 326 329 328 328 328 327 326 325 325 325 325 325 327 328 331 333 333 334 334 333 333 333 330 323 311 303 299 295 293 291 289 287 285 283 282 281 282 283
310 312 317 324 327 328 328 328 327 326 325 325 326 326 326 328 330 332 334 336 336 337 337 337 338 337 332 322 311 304 301 298 296 294 292 290 287 285 283 282 282 283
309 313 320 325 327 328 327 327 326 325 325 325 326 327 327 330 332 333 336 338 339 340 340 341 343 342 335 324 311 306 305 302 299 297 294 292 290 287 284 284 285 285
310 316 323 326 326 327 327 325 325 325 325 326 327 328 329 331 332 334 338 341 343 344 343 344 348 347 341 328 314 310 309 305 302 301 300 298 296 290 287 288 288 285
311 319 324 326 326 326 326 325 324 325 326 325 326 328 331 332 333 335 340 344 346 348 346 346 350 352 347 335 320 313 312 309 309 309 307 303 299 294 292 290 287 283
313 321 324 324 325 325 325 323 323 326 326 325 326 329 332 333 333 336 344 347 349 351 349 347 350 352 349 342 332 323 318 315 313 310 306 301 298 296 295 292 289 286
315 321 323 323 325 325 323 322 324 326 326 325 327 330 333 334 334 338 346 351 351 352 351 349 347 348 349 346 339 328 320 316 312 308 305 303 301 298 296 293 290 288
318 321 321 323 326 325 321 321 324 325 326 327 329 331 333 335 337 340 346 352 353 353 353 350 346 345 347 345 335 325 320 317 313 310 307 304 303 300 297 295 292 291
319 321 321 323 325 323 319 320 323 325 327 329 331 332 334 337 341 344 348 352 354 353 353 352 347 344 343 337 328 325 325 321 316 313 309 305 304 301 298 296 293 292